Hourly Data Report for July 04, 2004

SHERBROOKE A
QUEBEC

45°26'00.000" N
71°41'00.000" W
241.40 m
7028124
71610
YSC

Download Data

Hourly Data (July 2004)
Hourly Data Report for July 4, 2004
TIME
LST
Temp Definition
°C
Dew Point Definition
°C
Rel Hum Definition
%
Precip. Amount Definition
mm

Wind Dir Definition
10's deg

Wind Spd Definition
km/h
Visibility Definition
km
Stn Press Definition
kPa
Hmdx Definition


Wind Chill Definition


Weather Definition


00:00 10.2 9.6 96     0 15.0 98.79      
01:00 10.7 9.9 95   9 6 15.0 98.80      
02:00 10.7 9.7 94     0 15.0 98.84      
03:00 11.1 10.1 94   9 7 15.0 98.83      
04:00 10.6 9.6 94   9 7 15.0 98.83      
05:00 11.4 10.2 92   9 7 15.0 98.87      
06:00 13.8 12.1 89   7 6 15.0 98.87      
07:00 16.9 13.1 78   8 4 24.1 98.88     Mainly Clear
08:00 19.8 14.7 72   34 4 24.1 98.86     Mainly Clear
09:00 22.4 14.7 62   23 6 24.1 98.83 26   Mostly Cloudy
10:00 24.4 15.3 57     0 24.1 98.78 29   Mainly Clear
11:00 26.1 13.1 45   18 7 24.1 98.74 29   Mostly Cloudy
12:00 26.9 13.1 43   16 11 24.1 98.67 30   Mostly Cloudy
13:00 26.8 11.7 39   19 7 24.1 98.61 29   Mostly Cloudy
14:00 28.0 12.2 38   20 9 24.1 98.56 30   Mostly Cloudy
15:00 28.3 11.5 35   19 9 24.1 98.47 30   Mainly Clear
16:00 28.4 12.6 38   18 9 24.1 98.42 31   Mainly Clear
17:00 27.6 11.3 36   19 9 15.0 98.38 30    
18:00 27.1 13.7 44   16 9 15.0 98.36 30    
19:00 21.7 14.7 64   14 7 15.0 98.35 25    
20:00 20.1 13.0 64   14 7 15.0 98.36      
21:00 20.5 13.8 65   12 9 15.0 98.38      
22:00 20.0 14.4 70   11 7 15.0 98.38      
23:00 18.7 14.4 76   9 7 15.0 98.40      

Notes on Data Quality.

Legend

  • E = Estimated
  • M = Missing
  • NA = Not Available*
  • [empty] = Indicates an unobserved value
Date modified: